Home   Weather   New Salem   Past weeks

Flag for USA Past Weather in New Salem, North Dakota, USA — Yesterday and Last 2 Weeks

32 °F


Feels Like: 26 °F
Forecast: 35 / 54 °F
Wind: 6 mph from Northeast

Location: Bismarck Municipal Airport

Current Time: Oct 24, 2016 at 12:14:23 AM

Latest Report: Oct 23, 2016 at 10:52 PM

Visibility: 10 mi

Pressure: 30.38 "Hg (27.96 "Hg at 664m altitude)

Humidity: 92%

Dew Point: 30 °F

Location of New SalemLocation

Past Weather in New Salem — Graph


New Salem Temperature Yesterday

Maximum temperature yesterday: 51 °F (at 4:52 PM)
Minimum temperature yesterday: 32 °F (at 10:52 PM)
Average temperature yesterday: 44 °F

High & Low Weather Summary for the Past Weeks

High72 °F (Oct 9, 4:52 PM)97% (Oct 21, 12:52 AM)30.41 "Hg (Oct 21, 12:52 AM)
Low21 °F (Oct 13, 5:52 AM)18% (Oct 21, 2:52 PM)29.38 "Hg (Oct 16, 3:52 PM)
Average47 °F68%29.96 "Hg
* Reported Oct 8 10:52 PM — Oct 23 10:52 PM, New Salem, Weather by CustomWeather, © 2016

Note: Actual official high and low records may vary slightly from our data, if they occured in-between our weather recording intervals... More about our weather records


New Salem Weather History for the Previous 24 Hours

Scroll right to see more
Time TempWeatherWind HumidityBarometerVisibility
10:52 PM
Sun, Oct 23
32 °FClear.6 mph92%30.38 "Hg10 mi
9:52 PM36 °FClear.6 mph85%30.36 "HgN/A
8:52 PM35 °FClear.3 mph88%30.35 "Hg10 mi
7:52 PM38 °FClear.5 mph79%30.34 "Hg10 mi
6:52 PM47 °FPassing clouds.No wind64%30.31 "Hg10 mi
5:52 PM51 °FSunny.No wind54%30.30 "Hg10 mi
4:52 PM51 °FSunny.5 mph56%30.30 "Hg10 mi
3:52 PM50 °FScattered clouds.6 mph59%30.29 "Hg10 mi
2:52 PM48 °FPartly sunny.7 mph61%30.29 "Hg10 mi
1:52 PM48 °FOvercast.7 mph61%30.28 "Hg10 mi
12:52 PM48 °FOvercast.6 mph63%30.29 "Hg10 mi
11:52 AM47 °FOvercast.13 mph69%30.27 "Hg10 mi
11:04 AM45 °FCloudy.12 mph74%30.23 "Hg10 mi
10:52 AM44 °FMore clouds than sun.13 mph76%30.25 "Hg10 mi
9:52 AM43 °FOvercast.13 mph79%30.22 "Hg10 mi
8:52 AM42 °FOvercast.12 mph82%30.19 "Hg10 mi
7:52 AM43 °FPassing clouds.7 mph82%30.14 "Hg10 mi
6:52 AM44 °FOvercast.12 mph82%30.11 "Hg10 mi
5:52 AM43 °FClear.14 mph86%30.07 "Hg10 mi
5:02 AM44 °FPassing clouds.12 mph82%30.04 "Hg10 mi
4:52 AM44 °FPassing clouds.13 mph82%30.04 "Hg10 mi
3:52 AM45 °FPassing clouds.17 mph80%30.00 "Hg10 mi
2:52 AM46 °FClear.17 mph73%29.97 "Hg10 mi
1:52 AM47 °FClear.17 mph71%29.95 "Hg10 mi
12:52 AM49 °FClear.16 mph69%29.94 "Hg10 mi
Weather by CustomWeather, © 2016

See weather overviewHow to use our weather pages